Location: Sperry Observatory
(40.6664°N, 74.3236°W)
Time: 14:31:59
(UTC-04:00)

Amateur Radio Satellites - All Passes

Search period start: 27 July 2017 14:01
Search period end: 28 July 2017 14:01
Location: Sperry Observatory, 40.6664°N, 74.3236°W

Satellite Date Start Highest point End Downlink Frequencies (MHz)
Time Altitude Azimuth
PCSat 27 Jul 14:03:33 14:09:00 80° 60° (ENE) 14:14:25 145.827
Gurwin Techsat 1B 27 Jul 14:03:37 14:08:56 85° 256° (WSW) 14:14:18 435.225
50 SAT 27 Jul 14:06:14 14:09:41 86° 284° (WNW) 14:13:07 437.505
DX 1 27 Jul 14:12:55 14:17:18 66° 101° (ESE) 14:21:39 434.975-435.025
O/OREOS (USA 219) 27 Jul 14:13:13 14:16:31 20° 101° (ESE) 14:19:50 437.305
VELOX 1 27 Jul 14:16:20 14:20:23 34° 290° (WNW) 14:24:24 145.980
SO-50 27 Jul 14:18:41 14:22:56 38° 51° (NE) 14:27:12 436.795
AO-7 27 Jul 14:26:33 14:34:03 39° 60° (ENE) 14:41:35 .
BEESAT 2 27 Jul 14:40:51 14:43:08 15° 318° (NW) 14:45:26 435.950
SPROUT 27 Jul 14:48:47 14:50:47 13° 297° (WNW) 14:52:49 437.525
UKube-1 27 Jul 14:50:06 14:54:26 72° 286° (WNW) 14:58:44 .
Oscar 19 27 Jul 14:58:28 15:01:44 17° 268° (W) 15:05:01 437.125/150
RS-15 27 Jul 15:06:32 15:18:00 51° 110° (ESE) 15:29:40 29.354- 29.394
NO-84 27 Jul 15:09:20 15:09:47 10° 15° (NNE) 15:10:14 435.350 FM
ITAMSAT 1 27 Jul 15:14:15 15:19:19 54° 71° (ENE) 15:24:26 435.822/435.867
BEESAT 27 Jul 15:48:09 15:52:44 45° 99° (E) 15:57:16 436.000
PCSat 27 Jul 15:49:10 15:51:39 13° 257° (WSW) 15:54:08 145.827
DX 1 27 Jul 15:51:08 15:52:54 12° 298° (WNW) 15:54:41 434.975-435.025
O/OREOS (USA 219) 27 Jul 15:51:30 15:55:39 36° 298° (WNW) 15:59:49 437.305
SO-50 27 Jul 15:59:31 16:03:12 24° 247° (WSW) 16:06:53 436.795
ITUPSAT 1 27 Jul 16:03:07 16:07:52 64° 102° (ESE) 16:12:35 437.325
AO-7 27 Jul 16:18:33 16:26:35 50° 259° (WSW) 16:34:41 .
DOVE 4 27 Jul 16:24:42 16:27:53 17° 62° (ENE) 16:31:08 437.250
MOZHAYETS 4 27 Jul 16:25:04 16:29:39 87° 102° (ESE) 16:34:13
NO-84 27 Jul 16:44:49 16:48:11 31° 34° (NE) 16:51:46 435.350 FM
KKS-1 27 Jul 16:47:55 16:50:22 14° 92° (E) 16:52:47 437.445
ITAMSAT 1 27 Jul 16:55:32 16:59:05 18° 268° (W) 17:02:40 435.822/435.867
CUBESAT XI-V 27 Jul 17:06:55 17:11:26 46° 99° (E) 17:15:57 437.345
XW-2C 27 Jul 17:07:13 17:08:29 11° 65° (ENE) 17:09:43 145.795 - 145.815
RS-15 27 Jul 17:18:36 17:30:31 54° 313° (NW) 17:42:34 29.354- 29.394
KAITUO 1B 27 Jul 17:21:52 17:23:34 13° 66° (ENE) 17:25:14 145.475/437.950
CUTE-I 27 Jul 17:22:21 17:26:33 24° 64° (ENE) 17:30:46 437.470
BEESAT 27 Jul 17:26:47 17:30:09 20° 296° (WNW) 17:33:30 436.000
LilacSat-2 27 Jul 17:31:50 17:34:53 24° 70° (ENE) 17:37:55 437.200
XW-2F 27 Jul 17:40:38 17:43:48 26° 71° (ENE) 17:46:57 145.980 - 146.000
ITUPSAT 1 27 Jul 17:42:35 17:45:08 15° 298° (WNW) 17:47:42 437.325
DOVE 4 27 Jul 18:00:05 18:04:56 61° 260° (W) 18:10:06 437.250
XW-2D 27 Jul 18:10:47 18:14:31 72° 76° (ENE) 18:18:16 145.860 - 145.880
Tancredo 1 27 Jul 18:13:32 18:14:35 11° 130° (SE) 18:15:37 437.200
XW-2B 27 Jul 18:20:55 18:24:40 87° 259° (WSW) 18:28:26 145.730 - 145.750
YUBILEINY 27 Jul 18:21:12 18:29:33 49° 88° (E) 18:37:53 435.215
NO-84 27 Jul 18:22:06 18:25:43 38° 229° (SW) 18:29:34 435.350 FM
HO-68 27 Jul 18:22:19 18:28:36 35° 63° (ENE) 18:34:55 435.675
KKS-1 27 Jul 18:22:51 18:27:13 51° 287° (WNW) 18:31:31 437.445
CUTE 1.7 + AOD 2 27 Jul 18:27:10 18:30:01 18° 66° (ENE) 18:32:53 437.475
SEEDS 27 Jul 18:34:44 18:36:50 14° 65° (ENE) 18:38:56 437.485
NUDT-PHONESAT 27 Jul 18:34:48 18:38:28 78° 258° (WSW) 18:42:09 437.300
CUBEBUG 2 27 Jul 18:36:39 18:39:03 14° 64° (ENE) 18:41:25 437.445
XW-2C 27 Jul 18:38:34 18:42:13 49° 261° (W) 18:45:52 145.795 - 145.815
STARS 27 Jul 18:44:32 18:48:56 72° 285° (WNW) 18:53:17 437.465
CUBESAT XI-V 27 Jul 18:45:15 18:48:27 19° 295° (WNW) 18:51:38 437.345
KAITUO 1B 27 Jul 18:53:40 18:57:10 41° 261° (W) 19:00:41 145.475/437.950
CUTE-I 27 Jul 19:01:10 19:06:17 46° 261° (W) 19:11:28 437.470
LilacSat-2 27 Jul 19:06:08 19:09:05 22° 265° (W) 19:12:03 437.200
XW-2A 27 Jul 19:08:43 19:11:34 26° 71° (ENE) 19:14:25 145.665 - 145.685
nSIGHT-1 27 Jul 19:09:17 19:11:29 17° 132° (SE) 19:13:42 .
AAUSAT CUBESAT 2 27 Jul 19:09:22 19:11:44 15° 65° (ENE) 19:14:06 437.432
XW-2F 27 Jul 19:15:13 19:17:55 19° 266° (W) 19:20:37 145.980 - 146.000
STRAND 1 27 Jul 19:26:52 19:30:36 20° 93° (E) 19:34:18 437.568
UWE-3 27 Jul 19:27:02 19:30:49 27° 69° (ENE) 19:34:32 435.000/436.395/437.385
ZACube-1 27 Jul 19:35:10 19:38:08 18° 66° (ENE) 19:41:03 437.345
RS-15 27 Jul 19:37:19 19:46:48 24° 344° (NNW) 19:56:12 29.354- 29.394
Tancredo 1 27 Jul 19:46:41 19:49:36 62° 326° (NW) 19:52:31 437.200
AO-85 27 Jul 19:51:22 19:54:05 17° 44° (NE) 19:56:54 145.980
Oscar 11 27 Jul 19:55:53 19:58:58 20° 67° (ENE) 20:02:05 .
CUTE 1.7 + AOD 2 27 Jul 20:01:40 20:05:34 37° 262° (W) 20:09:29 437.475
ISS 27 Jul 20:04:56 20:08:08 63° 141° (SE) 20:11:21 437.550
SEEDS 27 Jul 20:08:02 20:12:04 51° 261° (W) 20:16:09 437.485
HO-68 27 Jul 20:09:16 20:16:06 47° 260° (W) 20:22:59 435.675
CUBEBUG 2 27 Jul 20:10:31 20:15:09 63° 259° (W) 20:19:42 437.445
AO-73 27 Jul 20:12:17 20:16:22 39° 72° (ENE) 20:20:22 145.935
YUBILEINY 27 Jul 20:18:31 20:26:30 37° 288° (WNW) 20:34:31 435.215
BEESAT 3 27 Jul 20:32:28 20:36:08 33° 51° (NE) 20:39:44 437.485
XW-2A 27 Jul 20:42:14 20:44:19 15° 266° (W) 20:46:24 145.665 - 145.685
AAUSAT CUBESAT 2 27 Jul 20:42:52 20:46:47 44° 261° (W) 20:50:46 437.432
nSIGHT-1 27 Jul 20:44:28 20:47:37 50° 328° (NNW) 20:50:47 .
UWE-3 27 Jul 21:03:13 21:07:10 29° 264° (W) 21:11:03 435.000/436.395/437.385
EO-88 27 Jul 21:03:32 21:05:31 14° 66° (ENE) 21:07:31 145.990 - 145.960
STRAND 1 27 Jul 21:05:06 21:10:00 47° 289° (WNW) 21:14:51 437.568
ZACube-1 27 Jul 21:09:54 21:14:06 42° 262° (W) 21:18:14 437.345
DELFI C3 27 Jul 21:18:27 21:22:05 37° 72° (ENE) 21:25:45 145.870
BEESAT 2 27 Jul 21:19:00 21:22:45 35° 51° (NE) 21:26:28 435.950
Tancredo 1 27 Jul 21:23:45 21:25:27 14° 344° (NNW) 21:27:09 437.200
AO-85 27 Jul 21:30:35 21:34:48 62° 241° (WSW) 21:39:18 145.980
Oscar 11 27 Jul 21:30:54 21:34:51 36° 262° (W) 21:38:49 .
ISS 27 Jul 21:42:14 21:44:51 22° 338° (NNW) 21:47:28 437.550
AO-73 27 Jul 21:49:41 21:52:42 18° 267° (W) 21:55:42 145.935
RS-15 27 Jul 21:55:27 22:05:11 26° 20° (NNE) 22:14:35 29.354- 29.394
FO-29 27 Jul 21:56:20 22:02:47 40° 95° (E) 22:08:29 435.910
BEESAT 3 27 Jul 22:10:27 22:13:30 21° 248° (WSW) 22:16:30 437.485
nSIGHT-1 27 Jul 22:22:39 22:24:36 15° 346° (NNW) 22:26:33 .
UNISAT 6 27 Jul 22:28:35 22:32:34 36° 97° (E) 22:36:30 437.425
LO-87 27 Jul 22:30:22 22:33:09 21° 69° (ENE) 22:35:56 145.935 - 145.965
EO-88 27 Jul 22:35:31 22:38:51 35° 262° (W) 22:42:14 145.990 - 145.960
DELFI C3 27 Jul 22:54:35 22:56:59 16° 268° (W) 22:59:24 145.870
BEESAT 2 27 Jul 22:57:14 23:00:16 21° 248° (WSW) 23:03:17 435.950
Tancredo 1 27 Jul 23:01:18 23:01:49 10° 4° (N) 23:02:21 437.200
ESTCUBE 1 27 Jul 23:04:23 23:08:29 37° 71° (ENE) 23:12:37 437.505/2401.250
PRISM 27 Jul 23:05:43 23:09:54 80° 101° (E) 23:14:04 437.425
TIGRISAT 27 Jul 23:11:44 23:16:02 78° 285° (WNW) 23:20:16 435.000
ISS 27 Jul 23:20:52 23:22:15 12° 358° (N) 23:23:38 437.550
VELOX 1 27 Jul 23:37:38 23:40:46 19° 65° (ENE) 23:43:56 145.980
FO-29 27 Jul 23:41:28 23:47:42 35° 296° (WNW) 23:53:17 435.910
M-CUBED/EXP-1 PRIME 27 Jul 23:43:19 23:47:58 69° 106° (ESE) 23:52:35 437.505
DUCHIFAT 1 27 Jul 23:46:50 23:47:14 10° 90° (E) 23:47:37 145.980
POLYITAN 1 27 Jul 23:52:03 23:54:39 16° 92° (E) 23:57:13 437.675
nSIGHT-1 28 Jul 00:00:31 00:02:03 13° 7° (N) 00:03:34 .
LO-87 28 Jul 00:03:30 00:06:27 23° 265° (W) 00:09:25 145.935 - 145.965
SPROUT 28 Jul 00:03:52 00:07:53 40° 71° (ENE) 00:11:55 437.525
QB50P2 28 Jul 00:04:37 00:08:04 24° 95° (E) 00:11:30 145.880/145.840
UNISAT 6 28 Jul 00:05:58 00:09:01 19° 294° (WNW) 00:12:02 437.425
RS-15 28 Jul 00:08:51 00:20:55 62° 50° (NE) 00:32:18 29.354- 29.394
NANOSAT C BR1 28 Jul 00:13:28 00:16:56 25° 95° (E) 00:20:22 145.865
EO-79 28 Jul 00:15:20 00:19:01 29° 96° (E) 00:22:41 145.935-145.965
O/OREOS (USA 219) 28 Jul 00:22:14 00:26:26 38° 62° (ENE) 00:30:39 437.305
AIST 2D 28 Jul 00:28:37 00:32:05 67° 284° (WNW) 00:35:34 435.315
Tancredo 1 28 Jul 00:35:39 00:38:03 22° 24° (NNE) 00:40:26 437.200
50 SAT 28 Jul 00:37:17 00:40:15 28° 71° (ENE) 00:43:13 437.505
ESTCUBE 1 28 Jul 00:42:07 00:45:23 20° 266° (W) 00:48:41 437.505/2401.250
ISS 28 Jul 00:57:19 00:59:43 19° 19° (NNE) 01:02:06 437.550
DX 1 28 Jul 01:07:46 01:12:00 54° 73° (ENE) 01:16:17 434.975-435.025
VELOX 1 28 Jul 01:12:46 01:16:55 40° 262° (W) 01:21:07 145.980
DUCHIFAT 1 28 Jul 01:19:10 01:23:17 63° 286° (WNW) 01:27:23 145.980
M-CUBED/EXP-1 PRIME 28 Jul 01:19:14 01:21:49 15° 302° (WNW) 01:24:24 437.505
POLYITAN 1 28 Jul 01:26:39 01:30:36 41° 288° (WNW) 01:34:32 437.675
Oscar 19 28 Jul 01:29:43 01:33:29 20° 93° (E) 01:37:12 437.125/150
BUGSAT 1 28 Jul 01:35:16 01:39:15 51° 100° (E) 01:43:11 437.445
nSIGHT-1 28 Jul 01:36:20 01:39:14 30° 27° (NNE) 01:42:08 .
QB50P2 28 Jul 01:40:14 01:43:48 27° 291° (WNW) 01:47:20 145.880/145.840
SPROUT 28 Jul 01:41:07 01:43:56 17° 267° (W) 01:46:47 437.525
UKube-1 28 Jul 01:43:42 01:48:02 90° 28° (NNE) 01:52:23 .
NANOSAT C BR1 28 Jul 01:49:04 01:52:34 26° 291° (WNW) 01:56:03 145.865
EO-79 28 Jul 01:51:19 01:54:37 23° 292° (WNW) 01:57:55 145.935-145.965
O/OREOS (USA 219) 28 Jul 02:02:18 02:05:34 20° 259° (W) 02:08:49 437.305
Tancredo 1 28 Jul 02:10:43 02:13:34 45° 221° (SW) 02:16:24 437.200
50 SAT 28 Jul 02:11:04 02:13:01 14° 267° (W) 02:14:58 437.505
Gurwin Techsat 1B 28 Jul 02:20:21 02:25:19 39° 98° (E) 02:30:15 435.225
RS-15 28 Jul 02:22:06 02:32:49 41° 253° (WSW) 02:43:03 29.354- 29.394
ISS 28 Jul 02:33:18 02:36:34 90° 90° (E) 02:39:49 437.550
DX 1 28 Jul 02:46:24 02:48:30 13° 269° (W) 02:50:36 434.975-435.025
BEESAT 28 Jul 02:53:58 02:58:34 51° 72° (ENE) 03:03:12 436.000
Oscar 19 28 Jul 03:08:03 03:13:01 49° 289° (WNW) 03:17:59 437.125/150
ITUPSAT 1 28 Jul 03:09:15 03:14:01 72° 73° (ENE) 03:18:47 437.325
BUGSAT 1 28 Jul 03:12:15 03:14:09 13° 296° (WNW) 03:16:01 437.445
nSIGHT-1 28 Jul 03:12:41 03:15:38 33° 224° (SW) 03:18:34 .
MOZHAYETS 4 28 Jul 03:26:12 03:30:46 79° 76° (ENE) 03:35:21
ITAMSAT 1 28 Jul 03:28:22 03:32:00 19° 93° (E) 03:35:36 435.822/435.867
KKS-1 28 Jul 03:46:05 03:48:26 14° 63° (ENE) 03:50:47 437.445
Gurwin Techsat 1B 28 Jul 04:00:39 04:05:04 27° 294° (WNW) 04:09:27 435.225
CUBESAT XI-V 28 Jul 04:09:44 04:14:04 43° 72° (ENE) 04:18:26 437.345
AO-7 28 Jul 04:20:03 04:28:18 59° 103° (ESE) 04:36:27 .
YUBILEINY 28 Jul 04:32:19 04:38:59 23° 65° (ENE) 04:45:33 435.215
BEESAT 28 Jul 04:33:38 04:36:37 16° 268° (W) 04:39:38 436.000
SO-50 28 Jul 04:35:23 04:37:03 12° 108° (ESE) 04:38:42 436.795
PCSat 28 Jul 04:44:30 04:49:54 80° 117° (ESE) 04:55:21 145.827
ITUPSAT 1 28 Jul 04:50:44 04:52:19 11° 270° (W) 04:53:54 437.325
ITAMSAT 1 28 Jul 05:06:42 05:11:44 51° 289° (WNW) 05:16:44 435.822/435.867
KKS-1 28 Jul 05:20:04 05:24:29 59° 259° (W) 05:28:55 437.445
STARS 28 Jul 05:40:14 05:44:40 86° 257° (WSW) 05:49:08 437.465
CUBESAT XI-V 28 Jul 05:48:30 05:51:38 18° 268° (W) 05:54:46 437.345
DOVE 4 28 Jul 05:59:27 06:04:24 41° 97° (E) 06:09:06 437.250
XW-2C 28 Jul 06:12:11 06:14:35 16° 93° (E) 06:16:59 145.795 - 145.815
SO-50 28 Jul 06:12:22 06:16:53 72° 303° (WNW) 06:21:24 436.795
AO-7 28 Jul 06:13:26 06:20:36 33° 302° (WNW) 06:27:45 .
KAITUO 1B 28 Jul 06:25:35 06:28:09 18° 94° (E) 06:30:43 145.475/437.950
YUBILEINY 28 Jul 06:27:58 06:36:42 76° 266° (W) 06:45:21 435.215
PCSat 28 Jul 06:30:17 06:33:57 18° 316° (NW) 06:37:38 145.827
LilacSat-2 28 Jul 06:38:37 06:42:09 36° 98° (E) 06:45:41 437.200
STRAND 1 28 Jul 06:42:11 06:46:34 29° 67° (ENE) 06:50:58 437.568
XW-2F 28 Jul 06:46:18 06:49:51 40° 98° (E) 06:53:24 145.980 - 146.000
XW-2D 28 Jul 07:17:26 07:21:12 71° 284° (WNW) 07:24:57 145.860 - 145.880
CUTE-I 28 Jul 07:18:09 07:23:32 74° 103° (ESE) 07:28:51 437.470
XW-2B 28 Jul 07:27:40 07:31:21 54° 286° (WNW) 07:35:03 145.730 - 145.750
HO-68 28 Jul 07:37:07 07:43:36 36° 97° (E) 07:50:03 435.675
DOVE 4 28 Jul 07:37:37 07:41:46 24° 294° (WNW) 07:45:47 437.250
NUDT-PHONESAT 28 Jul 07:39:04 07:42:39 51° 285° (WNW) 07:46:14 437.300
XW-2C 28 Jul 07:45:28 07:48:51 32° 288° (WNW) 07:52:14 145.795 - 145.815
CUTE 1.7 + AOD 2 28 Jul 07:46:26 07:50:22 35° 97° (E) 07:54:16 437.475
SEEDS 28 Jul 07:52:13 07:55:45 25° 95° (E) 07:59:17 437.485
SO-50 28 Jul 07:56:29 07:58:09 12° 323° (NW) 07:59:49 436.795
KAITUO 1B 28 Jul 07:58:55 08:02:10 29° 289° (WNW) 08:05:26 145.475/437.950
CUBEBUG 2 28 Jul 08:02:13 08:05:45 26° 95° (E) 08:09:13 437.445
XW-2A 28 Jul 08:02:57 08:05:52 27° 97° (E) 08:08:46 145.665 - 145.685
FO-29 28 Jul 08:07:38 08:13:18 23° 58° (ENE) 08:19:00 435.910
LilacSat-2 28 Jul 08:13:52 08:16:07 15° 293° (WNW) 08:18:23 437.200
STRAND 1 28 Jul 08:20:59 08:25:37 34° 263° (W) 08:30:17 437.568
XW-2F 28 Jul 08:21:40 08:23:37 14° 294° (WNW) 08:25:35 145.980 - 146.000
AAUSAT CUBESAT 2 28 Jul 08:25:13 08:28:48 27° 96° (E) 08:32:22 437.432
YUBILEINY 28 Jul 08:28:11 08:31:52 13° 286° (WNW) 08:35:32 435.215
UWE-3 28 Jul 08:52:25 08:56:31 56° 100° (E) 09:00:34 435.000/436.395/437.385
ZACube-1 28 Jul 08:58:20 09:02:08 34° 97° (E) 09:05:55 437.345
CUTE-I 28 Jul 08:59:55 09:02:55 15° 300° (WNW) 09:05:55 437.470
Oscar 11 28 Jul 09:17:56 09:22:00 39° 98° (E) 09:26:04 .
CUTE 1.7 + AOD 2 28 Jul 09:22:51 09:25:56 20° 293° (WNW) 09:29:01 437.475
HO-68 28 Jul 09:24:43 09:31:23 44° 294° (WNW) 09:38:01 435.675
UNISAT 6 28 Jul 09:26:41 09:30:48 33° 70° (ENE) 09:34:53 437.425
SEEDS 28 Jul 09:27:50 09:31:22 26° 291° (WNW) 09:34:52 437.485
AO-73 28 Jul 09:36:07 09:40:16 87° 97° (E) 09:44:25 145.935
XW-2A 28 Jul 09:36:26 09:38:21 15° 292° (WNW) 09:40:15 145.665 - 145.685
CUBEBUG 2 28 Jul 09:38:50 09:42:17 25° 292° (WNW) 09:45:40 437.445
NO-84 28 Jul 09:39:07 09:41:38 26° 129° (SE) 09:44:17 435.350 FM
FO-29 28 Jul 09:49:40 09:57:23 83° 256° (WSW) 10:05:18 435.910
PRISM 28 Jul 09:54:15 09:58:13 51° 73° (ENE) 10:02:15 437.425
AAUSAT CUBESAT 2 28 Jul 10:00:45 10:04:08 24° 291° (WNW) 10:07:30 437.432
EO-88 28 Jul 10:04:54 10:07:28 18° 94° (E) 10:10:00 145.990 - 145.960
TIGRISAT 28 Jul 10:09:17 10:13:55 86° 75° (ENE) 10:18:29 435.000
M-CUBED/EXP-1 PRIME 28 Jul 10:28:52 10:32:34 75° 71° (ENE) 10:36:36 437.505
DELFI C3 28 Jul 10:29:48 10:33:48 65° 101° (ESE) 10:37:46 145.870
UWE-3 28 Jul 10:30:45 10:32:28 12° 297° (WNW) 10:34:11 435.000/436.395/437.385
ZACube-1 28 Jul 10:35:16 10:38:10 19° 293° (WNW) 10:41:04 437.345
POLYITAN 1 28 Jul 10:45:12 10:47:05 13° 63° (ENE) 10:48:57 437.675
Oscar 11 28 Jul 10:54:53 10:57:50 18° 294° (WNW) 11:00:48 .
QB50P2 28 Jul 10:57:13 11:00:12 19° 66° (ENE) 11:03:12 145.880/145.840
AIST 2D 28 Jul 11:02:25 11:05:37 36° 73° (ENE) 11:08:50 435.315
UNISAT 6 28 Jul 11:03:47 11:07:31 24° 265° (W) 11:11:13 437.425
NANOSAT C BR1 28 Jul 11:05:32 11:08:31 19° 66° (ENE) 11:11:30 145.865
EO-79 28 Jul 11:07:35 11:10:51 22° 67° (ENE) 11:14:09 145.935-145.965
NO-84 28 Jul 11:16:25 11:19:01 25° 328° (NNW) 11:21:48 435.350 FM
LO-87 28 Jul 11:30:16 11:33:18 25° 96° (E) 11:36:19 145.935 - 145.965
PRISM 28 Jul 11:32:06 11:33:48 12° 269° (W) 11:35:30 437.425
EO-88 28 Jul 11:38:02 11:41:08 27° 289° (WNW) 11:44:13 145.990 - 145.960
FO-29 28 Jul 11:38:55 11:43:21 16° 274° (W) 11:47:52 435.910
AO-85 28 Jul 11:45:03 11:48:50 41° 117° (ESE) 11:52:33 145.980
PCSat 28 Jul 11:51:46 11:53:30 11° 37° (NE) 11:55:15 145.827
BEESAT 3 28 Jul 11:58:25 12:02:21 64° 119° (ESE) 12:06:22 437.485
DELFI C3 28 Jul 12:07:15 12:08:00 10° 297° (WNW) 12:08:44 145.870
DUCHIFAT 1 28 Jul 12:09:55 12:14:10 87° 76° (ENE) 12:18:25 145.980
POLYITAN 1 28 Jul 12:18:08 12:22:21 59° 259° (W) 12:26:34 437.675
BUGSAT 1 28 Jul 12:24:16 12:28:07 35° 71° (ENE) 12:31:57 437.445
QB50P2 28 Jul 12:31:44 12:35:43 37° 262° (W) 12:39:42 145.880/145.840
ESTCUBE 1 28 Jul 12:33:09 12:37:42 87° 101° (ESE) 12:42:14 437.505/2401.250
AIST 2D 28 Jul 12:37:39 12:38:59 12° 268° (W) 12:40:20 435.315
NANOSAT C BR1 28 Jul 12:40:00 12:43:57 37° 262° (W) 12:47:54 145.865
EO-79 28 Jul 12:42:38 12:46:26 31° 263° (W) 12:50:15 145.935-145.965
Oscar 19 28 Jul 12:46:07 12:50:27 29° 67° (ENE) 12:54:49 437.125/150
BEESAT 2 28 Jul 12:46:44 12:50:41 71° 121° (ESE) 12:54:43 435.950
VELOX 1 28 Jul 13:02:46 13:06:56 37° 98° (E) 13:11:03 145.980
LO-87 28 Jul 13:04:00 13:06:34 19° 292° (WNW) 13:09:06 145.935 - 145.965
SO-50 28 Jul 13:04:50 13:07:14 14° 39° (NE) 13:09:38 436.795
SPROUT 28 Jul 13:25:08 13:29:26 83° 105° (ESE) 13:33:40 437.525
AO-85 28 Jul 13:26:34 13:29:23 18° 314° (NW) 13:32:12 145.980
AO-7 28 Jul 13:30:03 13:35:10 18° 49° (NE) 13:40:18 .
50 SAT 28 Jul 13:31:44 13:34:48 29° 98° (E) 13:37:48 437.505
UKube-1 28 Jul 13:32:19 13:34:48 15° 92° (E) 13:37:17 .
PCSat 28 Jul 13:32:43 13:38:05 58° 58° (ENE) 13:43:25 145.827
BEESAT 3 28 Jul 13:37:59 13:40:20 15° 317° (NW) 13:42:43 437.485
Gurwin Techsat 1B 28 Jul 13:40:58 13:46:10 60° 72° (ENE) 13:51:26 435.225
